Regional Weather Roundup
Issued by NWS

Home | Current Version | Previous Version | Text Only | Print | Product List | Glossary On
Versions: 1 2 3 4 5 6 7 8 9 10 11 12 13 14 15 16 17 18 19 20 21 22 23 24 25 26 27 28 29 30 31 32 33 34 35 36 37 38 39 40 41 42 43 44 45 46 47 48 49 50
000
ASUS43 KTOP 060808
RWRKS

WEATHER ROUNDUP FOR KANSAS
NATIONAL WEATHER SERVICE GOODLAND KS
300 AM CDT MON JUL 06 2015

NOTE:  "FAIR" INDICATES FEW OR NO CLOUDS BELOW 12,000 FEET WITH NO
SIGNIFICANT WEATHER AND/OR OBSTRUCTIONS TO VISIBILITY.

KSZ001>006-013>018-027>032-041>047-060900-
NORTHWEST KANSAS

CITY           SKY/WX    TMP DP  RH WIND       PRES   REMARKS
GOODLAND       CLOUDY    67  64  90 NW10      29.93R
HAYS           CLOUDY    81  64  57 S24G32    29.83F
HILL CITY      CLOUDY    83  64  52 SW9       29.85F
RUSSELL        CLOUDY    80  67  64 S22       29.82F
$$

KSZ061>065-074>080-084>089-060900-
SOUTHWEST KANSAS

CITY           SKY/WX    TMP DP  RH WIND       PRES   REMARKS
DODGE CITY     MOCLDY    75  64  68 S15G24    29.88F
ELKHART          N/A     71  58  63 S13         N/A
GARDEN CITY    MOCLDY    74  65  73 S13       29.86S
GREAT BEND     MOCLDY    79  66  65 S18       29.87S
LIBERAL        CLEAR     75  63  64 S14       29.90F
PRATT          PTCLDY    77  64  65 S15       29.90F
$$

KSZ066>073-081>083-090>101-060900-
SOUTHEAST KANSAS

CITY           SKY/WX    TMP DP  RH WIND       PRES   REMARKS
CHANUTE        CLOUDY    75  72  90 SE8       29.94R
COFFEYVILLE    MOCLDY    75  71  87 SE7       29.93S
HUTCHINSON     MOCLDY    81  67  62 S17       29.87F
MEDICINE LODGE   N/A     78  67  68 S10       29.88F
NEWTON         CLOUDY    79  64  61 S16       29.92S
PARSONS        MOCLDY    76  72  87 S6        29.95R
WICHITA INTL   CLOUDY    80  69  69 S13       29.89S
WICHITA JABRA  CLOUDY    80  69  69 S16G24    29.89F
WICHITA MCCONL CLOUDY    80  69  70 S13       29.90S
WINFIELD       CLOUDY    80  69  69 S15       29.92S
$$

KSZ007>012-019>026-033>040-048>060-102>105-060900-
NORTHEAST KANSAS

CITY           SKY/WX    TMP DP  RH WIND       PRES   REMARKS
CONCORDIA      CLOUDY    82  69  64 S21G35    29.81F
EMPORIA        CLOUDY    78  70  76 S13       29.89F
LAWRENCE       MOCLDY    75  70  84 SE6       29.89F
MANHATTAN      CLOUDY    82  71  69 S12       29.83F
MARYSVILLE     CLOUDY    81  72  74 S12       29.82F
OLATHE IND     MOCLDY    74  69  85 S12       29.91F
OLATHE EXE     MOCLDY    72  68  87 S10       29.91F
SALINA         CLOUDY    83  68  60 S17       29.83F
TOPEKA BILLARD MOCLDY    80  72  76 S8        29.87F
TOPEKA FORBES  MOCLDY    81  71  71 S7        29.88S
$$


USA.gov is the U.S. government's official web portal to all federal, state and local government web resources and services.